Back to catalog

STARLINK-36255

AliveCommunicationsVLEO
NORAD 67102·PAYLOAD·🇺🇸 United States

Launched Dec 15, 2025 from Cape Canaveral Space Force Station

Loading…

Next Passes (next 24 hours)

TLE

FreshSource: CelesTrak SupGP

Epoch: Sep 14, 2026, 23:00 UTC

1 67102C 25299A   26257.95881944  .00400490  00000+0  11903-1 0  2571
2 67102  43.0012 179.9662 0001307 263.2745 112.3103 15.33734667    15

Track STARLINK-36255 in real time with AllMySat

Download on the App Store